Tracking 23752 objects as of 24-Oct-2021
HD Live streaming from Space Station
objects crossing your sky now

DICE 1

Track DICE 1 now!
10-day predictions
DICE 1 is classified as:


NORAD ID: 37851
Int'l Code: 2011-061B
Perigee: 434.6 km
Apogee: 675.8 km
Inclination: 101.7 °
Period: 95.6 minutes
Semi major axis: 6926 km
RCS: 0.0809 m2 (small)
Launch date: October 28, 2011
Source: United States (US)
Launch site: AIR FORCE WESTERN TEST RANGE (AFWTR)
aabbcc
Your satellite tracking list
Your tracking list is empty




NASA's NSSDC Master Catalog

Two Line Element Set (TLE):
1 37851U 11061B   21296.93202529  .00002985  00000-0  15235-3 0  9998
2 37851 101.7438 279.1944 0174088  81.2853 280.8033 15.06127753545433
Source of the keplerian elements: AFSPC